Year,Month,Day,Hour,Minute,Value (Times are PST for temperature in C)
2009,05,21,00,00,5.80
2009,05,21,00,01,5.80
2009,05,21,00,02,5.80
2009,05,21,00,03,5.70
2009,05,21,00,04,5.70
2009,05,21,00,05,5.70
2009,05,21,00,06,5.70
2009,05,21,00,07,5.70
2009,05,21,00,08,5.70
2009,05,21,00,09,5.70
2009,05,21,00,10,5.70
2009,05,21,00,11,5.60
2009,05,21,00,12,5.60
2009,05,21,00,13,5.60
2009,05,21,00,14,5.60
2009,05,21,00,15,5.60
2009,05,21,00,16,5.50
2009,05,21,00,17,5.50
2009,05,21,00,18,5.50
2009,05,21,00,19,5.50
2009,05,21,00,20,5.50
2009,05,21,00,21,5.40
2009,05,21,00,22,5.40
2009,05,21,00,23,5.40
2009,05,21,00,24,5.40
2009,05,21,00,25,5.40
2009,05,21,00,26,5.30
2009,05,21,00,27,5.30
2009,05,21,00,28,5.30
2009,05,21,00,29,5.30
2009,05,21,00,30,5.30
2009,05,21,00,31,5.30
2009,05,21,00,32,5.30
2009,05,21,00,33,5.30
2009,05,21,00,34,5.30
2009,05,21,00,35,5.20
2009,05,21,00,36,5.20
2009,05,21,00,37,5.20
2009,05,21,00,38,5.20
2009,05,21,00,39,5.20
2009,05,21,00,40,5.10
2009,05,21,00,41,5.10
2009,05,21,00,42,5.10
2009,05,21,00,43,5.10
2009,05,21,00,44,5.10
2009,05,21,00,45,5.10
2009,05,21,00,46,5.10
2009,05,21,00,47,5.10
2009,05,21,00,48,5.10
2009,05,21,00,49,5.10
2009,05,21,00,50,5.10
2009,05,21,00,51,5.10
2009,05,21,00,52,4.90
2009,05,21,00,53,4.90
2009,05,21,00,54,4.90
2009,05,21,00,55,4.90
2009,05,21,00,56,4.90
2009,05,21,00,57,4.90
2009,05,21,00,58,4.90
2009,05,21,00,59,4.90
2009,05,21,01,00,4.90
2009,05,21,01,01,4.90
2009,05,21,01,02,4.90
2009,05,21,01,03,4.90
2009,05,21,01,04,4.90
2009,05,21,01,05,4.80
2009,05,21,01,06,4.80
2009,05,21,01,07,4.80
2009,05,21,01,08,4.80
2009,05,21,01,09,4.80
2009,05,21,01,10,4.80
2009,05,21,01,11,4.80
2009,05,21,01,12,4.80
2009,05,21,01,13,4.70
2009,05,21,01,14,4.70
2009,05,21,01,15,4.70
2009,05,21,01,16,4.70
2009,05,21,01,17,4.70
2009,05,21,01,18,4.70
2009,05,21,01,19,4.70
2009,05,21,01,20,4.70
2009,05,21,01,21,4.80
2009,05,21,01,22,4.80
2009,05,21,01,23,4.80
2009,05,21,01,24,4.80
2009,05,21,01,25,4.80
2009,05,21,01,26,4.80
2009,05,21,01,27,4.80
2009,05,21,01,28,4.80
2009,05,21,01,29,4.80
2009,05,21,01,30,4.80
2009,05,21,01,31,4.80
2009,05,21,01,32,4.80
2009,05,21,01,33,4.80
2009,05,21,01,34,4.80
2009,05,21,01,35,4.80
2009,05,21,01,36,4.80
2009,05,21,01,37,4.80
2009,05,21,01,38,4.80
2009,05,21,01,39,4.70
2009,05,21,01,40,4.70
2009,05,21,01,41,4.70
2009,05,21,01,42,4.70
2009,05,21,01,43,4.70
2009,05,21,01,44,4.70
2009,05,21,01,45,4.80
2009,05,21,01,46,4.80
2009,05,21,01,47,4.80
2009,05,21,01,48,4.70
2009,05,21,01,49,4.70
2009,05,21,01,50,4.70
2009,05,21,01,51,4.70
2009,05,21,01,52,4.70
2009,05,21,01,53,4.60
2009,05,21,01,54,4.60
2009,05,21,01,55,4.60
2009,05,21,01,56,4.60
2009,05,21,01,57,4.60
2009,05,21,01,58,4.60
2009,05,21,01,59,4.60
2009,05,21,02,00,4.60
2009,05,21,02,01,4.60
2009,05,21,02,02,4.60
2009,05,21,02,03,4.60
2009,05,21,02,04,4.60
2009,05,21,02,05,4.60
2009,05,21,02,06,4.60
2009,05,21,02,07,4.60
2009,05,21,02,08,4.60
2009,05,21,02,09,4.60
2009,05,21,02,10,4.60
2009,05,21,02,11,4.60
2009,05,21,02,12,4.60
2009,05,21,02,13,4.60
2009,05,21,02,14,4.60
2009,05,21,02,15,4.60
2009,05,21,02,16,4.60
2009,05,21,02,17,4.60
2009,05,21,02,18,4.60
2009,05,21,02,19,4.60
2009,05,21,02,20,4.60
2009,05,21,02,21,4.70
2009,05,21,02,22,4.70
2009,05,21,02,23,4.70
2009,05,21,02,24,4.70
2009,05,21,02,25,4.70
2009,05,21,02,26,4.70
2009,05,21,02,27,4.70
2009,05,21,02,28,4.70
2009,05,21,02,29,4.70
2009,05,21,02,30,4.70
2009,05,21,02,31,4.70
2009,05,21,02,32,4.70
2009,05,21,02,33,4.70
2009,05,21,02,34,4.70
2009,05,21,02,35,4.70
2009,05,21,02,36,4.80
2009,05,21,02,37,4.80
2009,05,21,02,38,4.80
2009,05,21,02,39,4.80
2009,05,21,02,40,4.80
2009,05,21,02,41,4.80
2009,05,21,02,42,4.80
2009,05,21,02,43,4.80
2009,05,21,02,44,4.80
2009,05,21,02,45,4.80
2009,05,21,02,46,4.80
2009,05,21,02,47,4.80
2009,05,21,02,48,4.80
2009,05,21,02,49,4.80
2009,05,21,02,50,4.80
2009,05,21,02,51,4.80
2009,05,21,02,52,4.80
2009,05,21,02,53,4.80
2009,05,21,02,54,4.80
2009,05,21,02,55,4.80
2009,05,21,02,56,4.80
2009,05,21,02,57,4.80
2009,05,21,02,58,4.80
2009,05,21,02,59,4.70
2009,05,21,03,00,4.70
2009,05,21,03,01,4.70
2009,05,21,03,02,4.70
2009,05,21,03,03,4.70
2009,05,21,03,04,4.70
2009,05,21,03,05,4.70
2009,05,21,03,06,4.70
2009,05,21,03,07,4.70
2009,05,21,03,08,4.70
2009,05,21,03,09,4.70
2009,05,21,03,10,4.70
2009,05,21,03,11,4.70
2009,05,21,03,12,4.70
2009,05,21,03,13,4.70
2009,05,21,03,14,4.60
2009,05,21,03,15,4.60
2009,05,21,03,16,4.60
2009,05,21,03,17,4.60
2009,05,21,03,18,4.60
2009,05,21,03,19,4.60
2009,05,21,03,20,4.60
2009,05,21,03,21,4.60
2009,05,21,03,22,4.60
2009,05,21,03,23,4.60
2009,05,21,03,24,4.60
2009,05,21,03,25,4.60
2009,05,21,03,26,4.60
2009,05,21,03,27,4.60
2009,05,21,03,28,4.60
2009,05,21,03,29,4.60
2009,05,21,03,30,4.60
2009,05,21,03,31,4.60
2009,05,21,03,32,4.60
2009,05,21,03,33,4.50
2009,05,21,03,34,4.50
2009,05,21,03,35,4.50
2009,05,21,03,36,4.50
2009,05,21,03,37,4.50
2009,05,21,03,38,4.40
2009,05,21,03,39,4.40
2009,05,21,03,40,4.40
2009,05,21,03,41,4.40
2009,05,21,03,42,4.30
2009,05,21,03,43,4.30
2009,05,21,03,44,4.30
2009,05,21,03,45,4.30
2009,05,21,03,46,4.20
2009,05,21,03,47,4.20
2009,05,21,03,48,4.20
2009,05,21,03,49,4.20
2009,05,21,03,50,4.20
2009,05,21,03,51,4.20
2009,05,21,03,52,4.20
2009,05,21,03,53,4.20
2009,05,21,03,54,4.20
2009,05,21,03,55,4.20
2009,05,21,03,56,4.20
2009,05,21,03,57,4.20
2009,05,21,03,58,4.20
2009,05,21,03,59,4.10
2009,05,21,04,00,4.10
2009,05,21,04,01,4.10
2009,05,21,04,02,4.00
2009,05,21,04,03,4.00
2009,05,21,04,05,4.00
2009,05,21,04,06,3.90
2009,05,21,04,07,3.90
2009,05,21,04,08,3.90
2009,05,21,04,09,3.90
2009,05,21,04,10,3.90
2009,05,21,04,11,3.90
2009,05,21,04,12,3.90
2009,05,21,04,13,3.80
2009,05,21,04,14,3.90
2009,05,21,04,15,3.90
2009,05,21,04,16,3.90
2009,05,21,04,17,3.90
2009,05,21,04,18,3.80
2009,05,21,04,19,3.80
2009,05,21,04,20,3.80
2009,05,21,04,21,3.80
2009,05,21,04,22,3.80
2009,05,21,04,23,3.80
2009,05,21,04,24,3.80
2009,05,21,04,25,3.80
2009,05,21,04,26,3.80
2009,05,21,04,27,3.80
2009,05,21,04,28,3.80
2009,05,21,04,29,3.80
2009,05,21,04,30,3.80
2009,05,21,04,31,3.80
2009,05,21,04,32,3.80
2009,05,21,04,33,3.80
2009,05,21,04,34,3.80
2009,05,21,04,35,3.80
2009,05,21,04,36,3.80
2009,05,21,04,37,3.80
2009,05,21,04,38,3.80
2009,05,21,04,39,3.80
2009,05,21,04,40,3.80
2009,05,21,04,41,3.80
2009,05,21,04,42,3.80
2009,05,21,04,43,3.80
2009,05,21,04,44,3.80
2009,05,21,04,45,3.80
2009,05,21,04,46,3.80
2009,05,21,04,47,3.70
2009,05,21,04,48,3.70
2009,05,21,04,49,3.70
2009,05,21,04,50,3.70
2009,05,21,04,51,3.60
2009,05,21,04,52,3.60
2009,05,21,04,53,3.60
2009,05,21,04,54,3.60
2009,05,21,04,55,3.50
2009,05,21,04,56,3.50
2009,05,21,04,57,3.50
2009,05,21,04,58,3.50
2009,05,21,04,59,3.40
2009,05,21,05,00,3.40
2009,05,21,05,01,3.40
2009,05,21,05,02,3.40
2009,05,21,05,03,3.30
2009,05,21,05,04,3.30
2009,05,21,05,05,3.30
2009,05,21,05,06,3.30
2009,05,21,05,07,3.30
2009,05,21,05,08,3.30
2009,05,21,05,09,3.30
2009,05,21,05,10,3.30
2009,05,21,05,11,3.30
2009,05,21,05,12,3.30
2009,05,21,05,13,3.30
2009,05,21,05,14,3.30
2009,05,21,05,15,3.30
2009,05,21,05,16,3.30
2009,05,21,05,17,3.30
2009,05,21,05,18,3.30
2009,05,21,05,19,3.30
2009,05,21,05,20,3.30
2009,05,21,05,21,3.30
2009,05,21,05,22,3.30
2009,05,21,05,23,3.30
2009,05,21,05,24,3.30
2009,05,21,05,25,3.30
2009,05,21,05,26,3.30
2009,05,21,05,27,3.30
2009,05,21,05,28,3.30
2009,05,21,05,29,3.30
2009,05,21,05,30,3.30
2009,05,21,05,31,3.30
2009,05,21,05,32,3.30
2009,05,21,05,33,3.30
2009,05,21,05,34,3.30
2009,05,21,05,35,3.30
2009,05,21,05,36,3.30
2009,05,21,05,37,3.30
2009,05,21,05,38,3.30
2009,05,21,05,39,3.30
2009,05,21,05,40,3.30
2009,05,21,05,41,3.30
2009,05,21,05,42,3.30
2009,05,21,05,43,3.30
2009,05,21,05,44,3.30
2009,05,21,05,45,3.30
2009,05,21,05,46,3.30
2009,05,21,05,47,3.30
2009,05,21,05,48,3.30
2009,05,21,05,49,3.30
2009,05,21,05,50,3.30
2009,05,21,05,51,3.30
2009,05,21,05,52,3.30
2009,05,21,05,53,3.30
2009,05,21,05,54,3.30
2009,05,21,05,55,3.30
2009,05,21,05,56,3.40
2009,05,21,05,57,3.40
2009,05,21,05,58,3.40
2009,05,21,05,59,3.40
2009,05,21,06,00,3.40
2009,05,21,06,01,3.40
2009,05,21,06,02,3.50
2009,05,21,06,03,3.50
2009,05,21,06,04,3.50
2009,05,21,06,05,3.50
2009,05,21,06,06,3.60
2009,05,21,06,07,3.60
2009,05,21,06,08,3.70
2009,05,21,06,09,3.70
2009,05,21,06,10,3.70
2009,05,21,06,11,3.80
2009,05,21,06,12,3.80
2009,05,21,06,13,3.80
2009,05,21,06,14,3.80
2009,05,21,06,15,3.80
2009,05,21,06,16,3.80
2009,05,21,06,17,3.90
2009,05,21,06,18,3.90
2009,05,21,06,19,3.90
2009,05,21,06,20,3.90
2009,05,21,06,21,4.00
2009,05,21,06,22,4.00
2009,05,21,06,23,4.00
2009,05,21,06,24,4.10
2009,05,21,06,25,4.10
2009,05,21,06,26,4.20
2009,05,21,06,27,4.20
2009,05,21,06,28,4.20
2009,05,21,06,29,4.30
2009,05,21,06,30,4.30
2009,05,21,06,31,4.40
2009,05,21,06,32,4.50
2009,05,21,06,33,4.50
2009,05,21,06,34,4.60
2009,05,21,06,35,4.70
2009,05,21,06,36,4.80
2009,05,21,06,37,4.90
2009,05,21,06,38,5.00
2009,05,21,06,39,5.10
2009,05,21,06,40,5.20
2009,05,21,06,41,5.30
2009,05,21,06,42,5.50
2009,05,21,06,43,5.60
2009,05,21,06,44,5.70
2009,05,21,06,45,5.90
2009,05,21,06,46,6.00
2009,05,21,06,47,6.10
2009,05,21,06,48,6.20
2009,05,21,06,49,6.30
2009,05,21,06,50,6.40
2009,05,21,06,51,6.40
2009,05,21,06,52,6.50
2009,05,21,06,53,6.60
2009,05,21,06,54,6.70
2009,05,21,06,55,6.80
2009,05,21,06,56,6.80
2009,05,21,06,57,6.90
2009,05,21,06,58,7.00
2009,05,21,06,59,7.10
2009,05,21,07,00,7.20
2009,05,21,07,01,7.40
2009,05,21,07,02,7.60
2009,05,21,07,03,7.70
2009,05,21,07,04,7.80
2009,05,21,07,05,7.80
2009,05,21,07,06,7.90
2009,05,21,07,07,8.00
2009,05,21,07,08,8.10
2009,05,21,07,09,8.20
2009,05,21,07,10,8.30
2009,05,21,07,11,8.30
2009,05,21,07,12,8.40
2009,05,21,07,13,8.40
2009,05,21,07,14,8.50
2009,05,21,07,15,8.50
2009,05,21,07,16,8.60
2009,05,21,07,17,8.60
2009,05,21,07,18,8.70
2009,05,21,07,19,8.70
2009,05,21,07,20,8.70
2009,05,21,07,21,8.70
2009,05,21,07,22,8.80
2009,05,21,07,23,8.80
2009,05,21,07,24,8.90
2009,05,21,07,25,8.90
2009,05,21,07,26,9.00
2009,05,21,07,27,9.00
2009,05,21,07,28,9.10
2009,05,21,07,29,9.10
2009,05,21,07,30,9.20
2009,05,21,07,31,9.20
2009,05,21,07,32,9.30
2009,05,21,07,33,9.40
2009,05,21,07,34,9.50
2009,05,21,07,35,9.50
2009,05,21,07,36,9.60
2009,05,21,07,37,9.70
2009,05,21,07,38,9.80
2009,05,21,07,39,9.90
2009,05,21,07,40,10.10
2009,05,21,07,41,10.20
2009,05,21,07,42,10.30
2009,05,21,07,43,10.30
2009,05,21,07,44,10.40
2009,05,21,07,45,10.40
2009,05,21,07,46,10.50
2009,05,21,07,47,10.60
2009,05,21,07,48,10.70
2009,05,21,07,49,10.80
2009,05,21,07,50,10.80
2009,05,21,07,51,10.90
2009,05,21,07,52,10.90
2009,05,21,07,53,10.90
2009,05,21,07,54,11.00
2009,05,21,07,55,11.10
2009,05,21,07,56,11.10
2009,05,21,07,57,11.20
2009,05,21,07,58,11.20
2009,05,21,07,59,11.30
2009,05,21,08,00,11.40
2009,05,21,08,01,11.40
2009,05,21,08,02,11.40
2009,05,21,08,03,11.40
2009,05,21,08,04,11.40
2009,05,21,08,05,11.40
2009,05,21,08,06,11.40
2009,05,21,08,07,11.60
2009,05,21,08,08,11.60
2009,05,21,08,09,11.60
2009,05,21,08,10,11.60
2009,05,21,08,11,11.60
2009,05,21,08,12,11.60
2009,05,21,08,13,11.60
2009,05,21,08,14,11.60
2009,05,21,08,15,11.60
2009,05,21,08,16,11.60
2009,05,21,08,17,11.60
2009,05,21,08,18,11.60
2009,05,21,08,19,11.50
2009,05,21,08,20,11.40
2009,05,21,08,21,11.40
2009,05,21,08,22,11.40
2009,05,21,08,23,11.40
2009,05,21,08,24,11.30
2009,05,21,08,25,11.30
2009,05,21,08,26,11.30
2009,05,21,08,27,11.30
2009,05,21,08,28,11.30
2009,05,21,08,29,11.30
2009,05,21,08,30,11.30
2009,05,21,08,31,11.40
2009,05,21,08,32,11.40
2009,05,21,08,33,11.40
2009,05,21,08,34,11.40
2009,05,21,08,35,11.60
2009,05,21,08,36,11.60
2009,05,21,08,37,11.60
2009,05,21,08,38,11.70
2009,05,21,08,39,11.70
2009,05,21,08,40,11.80
2009,05,21,08,41,11.80
2009,05,21,08,42,11.90
2009,05,21,08,43,11.90
2009,05,21,08,44,11.90
2009,05,21,08,45,12.00
2009,05,21,08,46,12.00
2009,05,21,08,47,12.00
2009,05,21,08,48,12.00
2009,05,21,08,49,12.00
2009,05,21,08,50,12.00
2009,05,21,08,51,12.10
2009,05,21,08,52,12.10
2009,05,21,08,53,12.10
2009,05,21,08,54,12.10
2009,05,21,08,55,12.10
2009,05,21,08,56,12.10
2009,05,21,08,57,12.10
2009,05,21,08,58,12.10
2009,05,21,08,59,12.10
2009,05,21,09,00,12.10
2009,05,21,09,01,12.10
2009,05,21,09,02,12.10
2009,05,21,09,03,12.10
2009,05,21,09,04,12.10
2009,05,21,09,05,12.10
2009,05,21,09,06,12.10
2009,05,21,09,07,12.10
2009,05,21,09,08,12.10
2009,05,21,09,09,12.10
2009,05,21,09,10,12.10
2009,05,21,09,11,12.00
2009,05,21,09,12,12.00
2009,05,21,09,13,12.00
2009,05,21,09,14,11.90
2009,05,21,09,15,11.90
2009,05,21,09,16,12.00
2009,05,21,09,17,12.00
2009,05,21,09,18,12.00
2009,05,21,09,19,12.10
2009,05,21,09,20,12.20
2009,05,21,09,21,12.20
2009,05,21,09,22,12.30
2009,05,21,09,23,12.30
2009,05,21,09,24,12.30
2009,05,21,09,25,12.40
2009,05,21,09,26,12.40
2009,05,21,09,27,12.50
2009,05,21,09,28,12.50
2009,05,21,09,29,12.50
2009,05,21,09,30,12.50
2009,05,21,09,31,12.60
2009,05,21,09,32,12.60
2009,05,21,09,33,12.70
2009,05,21,09,34,12.70
2009,05,21,09,35,12.70
2009,05,21,09,36,12.70
2009,05,21,09,37,12.60
2009,05,21,09,38,12.60
2009,05,21,09,39,12.60
2009,05,21,09,40,12.60
2009,05,21,09,41,12.60
2009,05,21,09,42,12.60
2009,05,21,09,43,12.70
2009,05,21,09,44,12.70
2009,05,21,09,45,12.70
2009,05,21,09,46,12.70
2009,05,21,09,47,12.70
2009,05,21,09,48,12.70
2009,05,21,09,49,12.80
2009,05,21,09,50,12.80
2009,05,21,09,51,12.80
2009,05,21,09,52,12.90
2009,05,21,09,53,12.90
2009,05,21,09,54,13.00
2009,05,21,09,55,13.00
2009,05,21,09,56,13.00
2009,05,21,09,57,13.10
2009,05,21,09,58,13.10
2009,05,21,09,59,13.20
2009,05,21,10,00,13.20
2009,05,21,10,01,13.30
2009,05,21,10,02,13.30
2009,05,21,10,03,13.40
2009,05,21,10,04,13.50
2009,05,21,10,05,13.50
2009,05,21,10,06,13.60
2009,05,21,10,07,13.60
2009,05,21,10,08,13.70
2009,05,21,10,09,13.70
2009,05,21,10,10,13.80
2009,05,21,10,11,13.80
2009,05,21,10,12,13.90
2009,05,21,10,13,14.00
2009,05,21,10,14,14.10
2009,05,21,10,15,14.20
2009,05,21,10,16,14.30
2009,05,21,10,17,14.40
2009,05,21,10,18,14.40
2009,05,21,10,19,14.40
2009,05,21,10,20,14.40
2009,05,21,10,21,14.50
2009,05,21,10,22,14.50
2009,05,21,10,23,14.50
2009,05,21,10,24,14.50
2009,05,21,10,25,14.50
2009,05,21,10,26,14.50
2009,05,21,10,27,14.50
2009,05,21,10,28,14.60
2009,05,21,10,29,14.50
2009,05,21,10,30,14.50
2009,05,21,10,31,14.50
2009,05,21,10,32,14.50
2009,05,21,10,33,14.50
2009,05,21,10,34,14.50
2009,05,21,10,35,14.30
2009,05,21,10,36,14.30
2009,05,21,10,37,14.30
2009,05,21,10,38,14.40
2009,05,21,10,39,14.30
2009,05,21,10,40,14.30
2009,05,21,10,41,14.40
2009,05,21,10,42,14.50
2009,05,21,10,43,14.50
2009,05,21,10,44,14.60
2009,05,21,10,45,14.60
2009,05,21,10,46,14.70
2009,05,21,10,47,14.80
2009,05,21,10,48,14.70
2009,05,21,10,49,14.70
2009,05,21,10,50,14.80
2009,05,21,10,51,14.90
2009,05,21,10,52,15.00
2009,05,21,10,53,15.10
2009,05,21,10,54,15.20
2009,05,21,10,55,15.20
2009,05,21,10,56,15.10
2009,05,21,10,57,15.00
2009,05,21,10,58,14.80
2009,05,21,10,59,14.60
2009,05,21,11,00,14.50
2009,05,21,11,01,14.50
2009,05,21,11,02,14.50
2009,05,21,11,03,14.50
2009,05,21,11,04,14.50
2009,05,21,11,05,14.60
2009,05,21,11,06,14.60
2009,05,21,11,07,14.60
2009,05,21,11,08,14.60
2009,05,21,11,09,14.70
2009,05,21,11,10,14.80
2009,05,21,11,11,14.90
2009,05,21,11,12,15.00
2009,05,21,11,13,15.10
2009,05,21,11,14,15.30
2009,05,21,11,15,15.30
2009,05,21,11,16,15.40
2009,05,21,11,17,15.30
2009,05,21,11,18,15.30
2009,05,21,11,19,15.40
2009,05,21,11,20,15.40
2009,05,21,11,21,15.50
2009,05,21,11,22,15.50
2009,05,21,11,23,15.60
2009,05,21,11,24,15.60
2009,05,21,11,25,15.60
2009,05,21,11,26,15.70
2009,05,21,11,27,15.60
2009,05,21,11,28,15.60
2009,05,21,11,29,15.70
2009,05,21,11,30,15.60
2009,05,21,11,31,15.50
2009,05,21,11,32,15.40
2009,05,21,11,33,15.40
2009,05,21,11,34,15.40
2009,05,21,11,35,15.40
2009,05,21,11,36,15.50
2009,05,21,11,37,15.50
2009,05,21,11,38,15.50
2009,05,21,11,39,15.50
2009,05,21,11,40,15.50
2009,05,21,11,41,15.50
2009,05,21,11,42,15.60
2009,05,21,11,43,15.70
2009,05,21,11,44,15.70
2009,05,21,11,45,15.80
2009,05,21,11,46,15.80
2009,05,21,11,47,16.00
2009,05,21,11,48,16.10
2009,05,21,11,49,16.20
2009,05,21,11,50,16.30
2009,05,21,11,51,16.40
2009,05,21,11,52,16.40
2009,05,21,11,53,16.40
2009,05,21,11,54,16.40
2009,05,21,11,55,16.40
2009,05,21,11,56,16.40
2009,05,21,11,57,16.50
2009,05,21,11,58,16.60
2009,05,21,11,59,16.70
2009,05,21,12,00,16.70
2009,05,21,12,01,16.70
2009,05,21,12,02,16.80
2009,05,21,12,03,16.90
2009,05,21,12,04,16.90
2009,05,21,12,05,16.80
2009,05,21,12,06,16.70
2009,05,21,12,07,16.70
2009,05,21,12,08,16.60
2009,05,21,12,09,16.50
2009,05,21,12,10,16.40
2009,05,21,12,11,16.30
2009,05,21,12,12,16.30
2009,05,21,12,13,16.30
2009,05,21,12,14,16.40
2009,05,21,12,15,16.40
2009,05,21,12,16,16.40
2009,05,21,12,17,16.40
2009,05,21,12,18,16.40
2009,05,21,12,19,16.40
2009,05,21,12,20,16.40
2009,05,21,12,21,16.40
2009,05,21,12,22,16.40
2009,05,21,12,23,16.50
2009,05,21,12,24,16.60
2009,05,21,12,25,16.60
2009,05,21,12,26,16.70
2009,05,21,12,27,16.80
2009,05,21,12,28,16.90
2009,05,21,12,29,17.00
2009,05,21,12,30,17.20
2009,05,21,12,31,17.30
2009,05,21,12,32,17.40
2009,05,21,12,33,17.40
2009,05,21,12,34,17.40
2009,05,21,12,35,17.30
2009,05,21,12,36,17.10
2009,05,21,12,37,17.00
2009,05,21,12,38,17.10
2009,05,21,12,39,17.10
2009,05,21,12,40,17.00
2009,05,21,12,41,16.80
2009,05,21,12,42,16.70
2009,05,21,12,43,16.60
2009,05,21,12,44,16.50
2009,05,21,12,45,16.40
2009,05,21,12,46,16.40
2009,05,21,12,47,16.50
2009,05,21,12,48,16.60
2009,05,21,12,49,16.60
2009,05,21,12,50,16.60
2009,05,21,12,51,16.50
2009,05,21,12,52,16.40
2009,05,21,12,53,16.50
2009,05,21,12,54,16.60
2009,05,21,12,55,16.70
2009,05,21,12,56,16.80
2009,05,21,12,57,16.90
2009,05,21,12,58,17.00
2009,05,21,12,59,17.00
2009,05,21,13,00,17.10
2009,05,21,13,01,17.20
2009,05,21,13,02,17.20
2009,05,21,13,03,17.10
2009,05,21,13,04,17.00
2009,05,21,13,05,16.90
2009,05,21,13,06,16.90
2009,05,21,13,07,16.90
2009,05,21,13,08,16.90
2009,05,21,13,09,17.00
2009,05,21,13,10,17.10
2009,05,21,13,11,17.10
2009,05,21,13,12,17.10
2009,05,21,13,13,17.10
2009,05,21,13,14,17.00
2009,05,21,13,15,17.00
2009,05,21,13,16,17.00
2009,05,21,13,17,17.10
2009,05,21,13,18,17.20
2009,05,21,13,19,17.30
2009,05,21,13,20,17.30
2009,05,21,13,21,17.40
2009,05,21,13,22,17.40
2009,05,21,13,23,17.50
2009,05,21,13,24,17.40
2009,05,21,13,25,17.40
2009,05,21,13,26,17.40
2009,05,21,13,27,17.40
2009,05,21,13,28,17.30
2009,05,21,13,29,17.30
2009,05,21,13,30,17.30
2009,05,21,13,31,17.30
2009,05,21,13,32,17.30
2009,05,21,13,33,17.30
2009,05,21,13,34,17.40
2009,05,21,13,35,17.50
2009,05,21,13,36,17.70
2009,05,21,13,37,17.70
2009,05,21,13,38,17.70
2009,05,21,13,39,17.70
2009,05,21,13,40,17.70
2009,05,21,13,41,17.70
2009,05,21,13,42,17.60
2009,05,21,13,43,17.50
2009,05,21,13,44,17.50
2009,05,21,13,45,17.40
2009,05,21,13,46,17.30
2009,05,21,13,47,17.20
2009,05,21,13,48,17.20
2009,05,21,13,49,17.10
2009,05,21,13,50,17.10
2009,05,21,13,51,17.30
2009,05,21,13,52,17.40
2009,05,21,13,53,17.50
2009,05,21,13,54,17.50
2009,05,21,13,55,17.60
2009,05,21,13,56,17.60
2009,05,21,13,57,17.70
2009,05,21,13,58,17.80
2009,05,21,13,59,17.70
2009,05,21,14,00,17.60
2009,05,21,14,01,17.60
2009,05,21,14,02,17.60
2009,05,21,14,03,17.60
2009,05,21,14,04,17.60
2009,05,21,14,05,17.60
2009,05,21,14,06,17.50
2009,05,21,14,07,17.50
2009,05,21,14,08,17.60
2009,05,21,14,09,17.60
2009,05,21,14,10,17.60
2009,05,21,14,11,17.60
2009,05,21,14,12,17.70
2009,05,21,14,13,17.70
2009,05,21,14,14,17.70
2009,05,21,14,15,17.60
2009,05,21,14,16,17.40
2009,05,21,14,17,17.30
2009,05,21,14,18,17.30
2009,05,21,14,19,17.30
2009,05,21,14,20,17.40
2009,05,21,14,21,17.40
2009,05,21,14,22,17.40
2009,05,21,14,23,17.50
2009,05,21,14,24,17.50
2009,05,21,14,25,17.60
2009,05,21,14,26,17.60
2009,05,21,14,27,17.70
2009,05,21,14,28,17.70
2009,05,21,14,29,17.60
2009,05,21,14,30,17.60
2009,05,21,14,31,17.60
2009,05,21,14,32,17.70
2009,05,21,14,33,17.80
2009,05,21,14,34,17.90
2009,05,21,14,35,17.90
2009,05,21,14,36,17.90
2009,05,21,14,37,17.90
2009,05,21,14,38,17.90
2009,05,21,14,39,17.90
2009,05,21,14,40,17.90
2009,05,21,14,41,17.90
2009,05,21,14,42,18.00
2009,05,21,14,43,18.10
2009,05,21,14,44,18.10
2009,05,21,14,45,18.00
2009,05,21,14,46,17.90
2009,05,21,14,47,17.90
2009,05,21,14,48,18.00
2009,05,21,14,49,18.00
2009,05,21,14,50,17.90
2009,05,21,14,51,17.90
2009,05,21,14,52,17.80
2009,05,21,14,53,17.70
2009,05,21,14,54,17.70
2009,05,21,14,55,17.70
2009,05,21,14,56,17.70
2009,05,21,14,57,17.70
2009,05,21,14,58,17.70
2009,05,21,14,59,17.80
2009,05,21,15,00,17.80
2009,05,21,15,01,17.90
2009,05,21,15,02,17.90
2009,05,21,15,03,17.90
2009,05,21,15,04,18.00
2009,05,21,15,05,18.10
2009,05,21,15,06,18.20
2009,05,21,15,07,18.20
2009,05,21,15,08,18.20
2009,05,21,15,09,18.20
2009,05,21,15,10,18.10
2009,05,21,15,11,18.10
2009,05,21,15,12,18.10
2009,05,21,15,13,18.10
2009,05,21,15,14,18.20
2009,05,21,15,15,18.20
2009,05,21,15,16,18.10
2009,05,21,15,17,18.10
2009,05,21,15,18,18.10
2009,05,21,15,19,18.10
2009,05,21,15,20,18.10
2009,05,21,15,21,18.10
2009,05,21,15,22,18.10
2009,05,21,15,23,18.20
2009,05,21,15,24,18.20
2009,05,21,15,25,18.30
2009,05,21,15,26,18.40
2009,05,21,15,27,18.50
2009,05,21,15,28,18.60
2009,05,21,15,29,18.60
2009,05,21,15,30,18.70
2009,05,21,15,31,18.70
2009,05,21,15,32,18.70
2009,05,21,15,33,18.60
2009,05,21,15,34,18.60
2009,05,21,15,35,18.50
2009,05,21,15,36,18.50
2009,05,21,15,37,18.40
2009,05,21,15,38,18.30
2009,05,21,15,39,18.20
2009,05,21,15,40,18.20
2009,05,21,15,41,18.10
2009,05,21,15,42,18.10
2009,05,21,15,43,18.10
2009,05,21,15,44,18.20
2009,05,21,15,45,18.20
2009,05,21,15,46,18.10
2009,05,21,15,47,18.10
2009,05,21,15,48,18.00
2009,05,21,15,49,17.90
2009,05,21,15,50,18.00
2009,05,21,15,51,17.90
2009,05,21,15,52,18.00
2009,05,21,15,53,18.10
2009,05,21,15,54,18.10
2009,05,21,15,55,18.00
2009,05,21,15,56,17.90
2009,05,21,15,57,18.00
2009,05,21,15,58,18.10
2009,05,21,15,59,18.10
2009,05,21,16,00,18.10
2009,05,21,16,01,18.20
2009,05,21,16,02,18.10
2009,05,21,16,03,18.10
2009,05,21,16,04,18.10
2009,05,21,16,05,18.10
2009,05,21,16,06,18.10
2009,05,21,16,07,18.20
2009,05,21,16,08,18.20
2009,05,21,16,09,18.20
2009,05,21,16,10,18.30
2009,05,21,16,11,18.40
2009,05,21,16,12,18.40
2009,05,21,16,13,18.50
2009,05,21,16,14,18.50
2009,05,21,16,15,18.50
2009,05,21,16,16,18.60
2009,05,21,16,17,18.70
2009,05,21,16,18,18.80
2009,05,21,16,19,18.80
2009,05,21,16,20,18.80
2009,05,21,16,21,18.80
2009,05,21,16,22,18.70
2009,05,21,16,23,18.60
2009,05,21,16,24,18.50
2009,05,21,16,25,18.50
2009,05,21,16,26,18.60
2009,05,21,16,27,18.60
2009,05,21,16,28,18.60
2009,05,21,16,29,18.70
2009,05,21,16,30,18.70
2009,05,21,16,31,18.70
2009,05,21,16,32,18.80
2009,05,21,16,33,18.90
2009,05,21,16,34,18.90
2009,05,21,16,35,18.90
2009,05,21,16,36,18.90
2009,05,21,16,37,19.00
2009,05,21,16,38,18.90
2009,05,21,16,39,18.90
2009,05,21,16,40,18.80
2009,05,21,16,41,18.70
2009,05,21,16,42,18.60
2009,05,21,16,43,18.60
2009,05,21,16,44,18.60
2009,05,21,16,45,18.60
2009,05,21,16,46,18.50
2009,05,21,16,47,18.60
2009,05,21,16,48,18.60
2009,05,21,16,49,18.60
2009,05,21,16,50,18.50
2009,05,21,16,51,18.50
2009,05,21,16,52,18.50
2009,05,21,16,53,18.60
2009,05,21,16,54,18.60
2009,05,21,16,55,18.60
2009,05,21,16,56,18.70
2009,05,21,16,57,18.70
2009,05,21,16,58,18.60
2009,05,21,16,59,18.50
2009,05,21,17,00,18.40
2009,05,21,17,01,18.30
2009,05,21,17,02,18.30
2009,05,21,17,03,18.30
2009,05,21,17,04,18.40
2009,05,21,17,05,18.40
2009,05,21,17,06,18.40
2009,05,21,17,07,18.40
2009,05,21,17,08,18.40
2009,05,21,17,09,18.40
2009,05,21,17,10,18.40
2009,05,21,17,11,18.40
2009,05,21,17,12,18.40
2009,05,21,17,13,18.40
2009,05,21,17,14,18.40
2009,05,21,17,15,18.40
2009,05,21,17,16,18.40
2009,05,21,17,17,18.40
2009,05,21,17,18,18.40
2009,05,21,17,19,18.40
2009,05,21,17,20,18.40
2009,05,21,17,21,18.40
2009,05,21,17,22,18.50
2009,05,21,17,23,18.50
2009,05,21,17,24,18.50
2009,05,21,17,25,18.50
2009,05,21,17,26,18.50
2009,05,21,17,27,18.50
2009,05,21,17,28,18.50
2009,05,21,17,29,18.50
2009,05,21,17,30,18.50
2009,05,21,17,31,18.50
2009,05,21,17,32,18.50
2009,05,21,17,33,18.40
2009,05,21,17,34,18.30
2009,05,21,17,35,18.30
2009,05,21,17,36,18.30
2009,05,21,17,37,18.20
2009,05,21,17,38,18.20
2009,05,21,17,39,18.20
2009,05,21,17,40,18.20